Weather History for Midland Airpark, TX

Change the Weather History Date:

Tuesday, June 12, 2012

  Actual Average (KMAF) Record (KMAF)
Temperature  
Mean Temperature 85 °F 80 °F  
Max Temperature 97 °F 93 °F 105 °F (2001)
Min Temperature 73 °F 67 °F 55 °F (1979)
Cooling Degree Days 20 15  
Month to date cooling degree days 169  
Year to date cooling degree days 558  
Since 1 June cooling degree days 169  
Growing Degree Days 35 (Base 50)    
Moisture  
Dew Point 62 °F    
Average Humidity 49    
Maximum Humidity 79    
Minimum Humidity 25    
Precipitation  
Precipitation 0.05 in 0.06 in 1.10 in (1985)
Month to date precipitation 0.77  
Year to date precipitation 5.03  
Sea Level Pressure  
Sea Level Pressure 30.03 in    
Wind  
Wind Speed 11 mph (East)    
Max Wind Speed 25 mph    
Max Gust Speed 32 mph    
Visibility 10 miles    
Events Rain , Thunderstorm    
T = Trace of Precipitation, MM = Missing Value Source: NWS Daily Summary

Daily Weather History Graph

Daily Weather History Graph

Search for Another Location

Airport:

Trip Planner

Search our weather history database for the weather conditions in past years. The results will help you decide how hot, cold, wet, or windy it might be!

Date:

Astronomy

Jun. 12, 2012 Rise Set
Actual Time 6:41 AM CDT 8:55 PM CDT
Civil Twilight 6:13 AM CDT 9:23 PM CDT
Nautical Twilight 5:39 AM CDT 9:57 PM CDT
Astronomical Twilight 5:01 AM CDT 10:35 PM CDT
Moon 2:10 AM CDT (6/12) 3:02 PM CDT (6/12)
Length of Visible Light 15h 09m
Length of Day
14h 13m
Last Quarter, 38% of the Moon is Illuminated
Jun 12
Last Quarter
Jun 19
New
Jun 26
First Quarter
Jul 3
Full
Jul 10
Last Quarter

Hourly Weather History & Observations

Time (CDT) Temp. Heat Index Dew Point Humidity Pressure Visibility Wind Dir Wind Speed Gust Speed Precip Events Conditions
12:15 AM 81.0 °F 81.0 °F 57.2 °F 44% 30.03 in 10.0 mi ESE 16.1 mph - N/A   Clear
12:35 AM 80.1 °F 80.4 °F 56.7 °F 45% 30.03 in 10.0 mi ESE 13.8 mph 20.7 mph N/A   Clear
1:15 AM 78.3 °F - 57.2 °F 48% 30.02 in 10.0 mi SE 13.8 mph 20.7 mph N/A   Clear
1:35 AM 77.9 °F - 57.6 °F 49% 30.02 in 10.0 mi ESE 11.5 mph - N/A   Clear
1:55 AM 77.2 °F - 57.6 °F 51% 30.02 in 10.0 mi East 8.1 mph - N/A   Clear
2:15 AM 76.6 °F - 57.6 °F 52% 30.02 in 10.0 mi ESE 8.1 mph - N/A   Clear
2:35 AM 76.3 °F - 57.6 °F 52% 30.02 in 10.0 mi ESE 5.8 mph - N/A   Clear
2:55 AM 76.1 °F - 57.6 °F 53% 30.02 in 10.0 mi ENE 5.8 mph - N/A   Clear
3:15 AM 74.7 °F - 57.4 °F 55% 30.02 in 10.0 mi NE 6.9 mph - N/A   Clear
3:55 AM 73.6 °F - 57.2 °F 56% 30.02 in 10.0 mi ENE 5.8 mph - N/A   Clear
4:15 AM 73.6 °F - 57.6 °F 57% 30.02 in 10.0 mi East 4.6 mph - N/A   Clear
4:35 AM 73.8 °F - 57.7 °F 57% 30.01 in 10.0 mi East 4.6 mph - N/A   Clear
4:55 AM 73.8 °F - 57.7 °F 57% 30.01 in 10.0 mi ESE 5.8 mph - N/A   Clear
5:15 AM 74.7 °F - 57.6 °F 55% 30.01 in 10.0 mi ESE 4.6 mph - N/A   Clear
5:35 AM 74.8 °F - 57.4 °F 54% 30.01 in 10.0 mi ESE 6.9 mph - N/A   Clear
5:55 AM 74.5 °F - 57.4 °F 55% 30.01 in 10.0 mi SE 5.8 mph - N/A   Clear
6:15 AM 74.3 °F - 57.6 °F 56% 30.01 in 10.0 mi ESE 4.6 mph - N/A   Clear
6:35 AM 73.9 °F - 57.6 °F 56% 30.02 in 10.0 mi ESE 4.6 mph - N/A   Clear
6:55 AM 73.6 °F - 57.7 °F 58% 30.03 in 10.0 mi East 4.6 mph - N/A   Clear
7:15 AM 73.0 °F - 57.9 °F 59% 30.04 in 10.0 mi East 4.6 mph - N/A   Clear
7:35 AM 73.0 °F - 58.3 °F 60% 30.06 in 10.0 mi East 6.9 mph - N/A   Clear
7:55 AM 74.3 °F - 59.2 °F 59% 30.06 in 10.0 mi East 6.9 mph - N/A   Clear
8:15 AM 75.7 °F - 60.4 °F 59% 30.07 in 10.0 mi SE 8.1 mph - N/A   Clear
8:35 AM 77.2 °F - 62.1 °F 59% 30.07 in 7.0 mi East 6.9 mph - N/A   Clear
8:55 AM 77.2 °F - 63.3 °F 62% 30.07 in 10.0 mi East 6.9 mph - N/A   Clear
9:15 AM 78.4 °F - 64.2 °F 62% 30.12 in 10.0 mi NE 10.4 mph - N/A   Scattered Clouds
9:35 AM 79.2 °F - 64.8 °F 61% 30.10 in 10.0 mi East 9.2 mph - N/A   Scattered Clouds
9:55 AM 80.2 °F 82.0 °F 64.8 °F 59% 30.10 in 10.0 mi ENE 10.4 mph - N/A   Clear
10:15 AM 81.7 °F 83.6 °F 65.5 °F 58% 30.11 in 10.0 mi East 6.9 mph - N/A   Scattered Clouds
10:35 AM 82.8 °F 84.9 °F 66.2 °F 57% 30.10 in 10.0 mi East 3.5 mph 9.2 mph N/A   Scattered Clouds
10:55 AM 84.0 °F 86.5 °F 66.6 °F 56% 30.10 in 10.0 mi ENE 9.2 mph - N/A   Scattered Clouds
11:15 AM 84.0 °F 86.3 °F 66.4 °F 55% 30.11 in 10.0 mi ESE 6.9 mph - N/A   Scattered Clouds
11:35 AM 85.3 °F 87.4 °F 65.8 °F 52% 30.11 in 10.0 mi ENE 10.4 mph 16.1 mph N/A   Scattered Clouds
11:55 AM 86.2 °F 88.4 °F 65.8 °F 51% 30.10 in 10.0 mi East 11.5 mph 16.1 mph N/A   Scattered Clouds
12:15 PM 88.5 °F 90.1 °F 64.8 °F 45% 30.09 in 10.0 mi East 12.7 mph 20.7 mph N/A   Clear
12:35 PM 89.8 °F 91.4 °F 64.2 °F 43% 30.08 in 10.0 mi East 15.0 mph 20.7 mph N/A   Clear
1:15 PM 91.0 °F 92.6 °F 64.6 °F 41% 30.07 in 10.0 mi East 16.1 mph 19.6 mph N/A   Clear
1:35 PM 91.9 °F 93.7 °F 64.2 °F 40% 30.06 in 10.0 mi East 13.8 mph 21.9 mph N/A   Clear
1:55 PM 92.3 °F 93.4 °F 63.3 °F 38% 30.06 in 10.0 mi East 16.1 mph 20.7 mph N/A   Clear
2:15 PM 92.8 °F 94.3 °F 63.7 °F 38% 30.04 in 10.0 mi East 15.0 mph 24.2 mph N/A   Clear
2:35 PM 93.0 °F 95.0 °F 64.4 °F 39% 30.03 in 10.0 mi East 12.7 mph 21.9 mph N/A   Clear
2:55 PM 94.3 °F 95.8 °F 63.5 °F 36% 30.02 in 10.0 mi East 15.0 mph 21.9 mph N/A   Clear
3:15 PM 94.8 °F 95.8 °F 62.6 °F 34% 30.01 in 10.0 mi East 18.4 mph 23.0 mph N/A   Clear
3:35 PM 95.5 °F 96.5 °F 62.2 °F 33% 30.00 in 10.0 mi East 15.0 mph 21.9 mph N/A   Clear
3:55 PM 95.7 °F 95.9 °F 60.6 °F 31% 29.99 in 10.0 mi East 18.4 mph 21.9 mph N/A   Clear
4:15 PM 96.6 °F 96.0 °F 58.1 °F 28% 29.99 in 10.0 mi ESE 13.8 mph 21.9 mph N/A   Clear
4:35 PM 97.0 °F 95.7 °F 56.8 °F 26% 29.98 in 10.0 mi ESE 15.0 mph 23.0 mph N/A   Clear
4:55 PM 96.6 °F 95.2 °F 56.3 °F 26% 29.98 in 10.0 mi ESE 12.7 mph 21.9 mph N/A   Clear
5:15 PM 97.2 °F 95.6 °F 56.1 °F 25% 29.97 in 10.0 mi SE 16.1 mph 20.7 mph N/A   Clear
5:35 PM 97.3 °F 95.8 °F 56.1 °F 25% 29.96 in 7.0 mi East 18.4 mph 24.2 mph N/A   Clear
5:55 PM 96.3 °F 95.5 °F 58.6 °F 28% 29.96 in 10.0 mi East 18.4 mph 24.2 mph N/A   Clear
6:15 PM 93.0 °F 94.2 °F 63.5 °F 37% 29.96 in 5.0 mi East 23.0 mph 32.2 mph N/A   Haze
6:35 PM 90.5 °F 92.2 °F 64.2 °F 42% 29.95 in 10.0 mi East 21.9 mph 28.8 mph N/A   Scattered Clouds
6:55 PM 90.9 °F 92.0 °F 63.7 °F 40% 29.94 in 10.0 mi East 20.7 mph 27.6 mph N/A   Clear
7:15 PM 89.8 °F 91.0 °F 64.0 °F 42% 29.93 in 10.0 mi East 19.6 mph 31.1 mph N/A   Clear
7:55 PM 88.0 °F 89.3 °F 64.4 °F 45% 29.94 in 10.0 mi ESE 16.1 mph 24.2 mph N/A   Clear
8:15 PM 87.3 °F 88.6 °F 64.2 °F 46% 29.95 in 10.0 mi ESE 15.0 mph 23.0 mph N/A Thunderstorm Thunderstorm
8:35 PM 86.7 °F 88.4 °F 65.1 °F 48% 29.95 in 10.0 mi ESE 12.7 mph - N/A   Clear
8:55 PM 86.7 °F 89.0 °F 66.0 °F 50% 29.95 in 10.0 mi ESE 15.0 mph 25.3 mph N/A   Clear
9:15 PM 86.5 °F 88.7 °F 65.8 °F 50% 29.96 in 10.0 mi ESE 19.6 mph 24.2 mph N/A   Clear
9:35 PM 86.0 °F 87.9 °F 65.3 °F 50% 29.97 in 10.0 mi East 17.3 mph 24.2 mph N/A   Clear
9:55 PM 85.1 °F 86.9 °F 65.3 °F 51% 29.98 in 10.0 mi ENE 23.0 mph 31.1 mph N/A   Clear
10:15 PM 84.4 °F 86.3 °F 65.3 °F 53% 30.03 in 10.0 mi NE 24.2 mph 28.8 mph N/A Rain , Thunderstorm Light Thunderstorms and Rain
10:35 PM 83.7 °F 85.5 °F 65.5 °F 54% 30.07 in 10.0 mi NNE 16.1 mph 26.5 mph N/A Rain , Thunderstorm Light Thunderstorms and Rain
10:55 PM 82.8 °F 84.7 °F 65.8 °F 56% 30.08 in 10.0 mi NE 17.3 mph 25.3 mph N/A Rain , Thunderstorm Light Thunderstorms and Rain
11:35 PM 76.5 °F - 66.4 °F 71% 30.09 in 7.0 mi South 11.5 mph - 0.04 in Rain , Thunderstorm Rain
11:55 PM 75.7 °F - 68.9 °F 79% 30.03 in 10.0 mi SE 25.3 mph - 0.05 in Thunderstorm Drizzle